CZ-4C R/B, 41728

Orbit data source: Space-Track

CZ-4C R/B, 41728 is space debris in SSO originally from a launch on Tue, 09 Aug 2016 UTC launched from the Taiyaun Space Center, China (TSC). Debris objects in space refer to the collection of defunct objects orbiting the Earth. Examples of debris include non-operational satellites, rocket bodies, and fragments generated from explosions, collisions, or faulty payload assembly.

Loading next visibility...
Identifier
41728, 2016-049B
Orbit
SSO
Country
Flag of CNCN / PRC
Related business
Manufacturer
SAST
Mission
Spacecraft
Bus & Motor
CZ-4 STAGE 3, Unknown motor
Mass
~1,000 kg wet, ~1,000 kg dry
Launch date (UTC)
2016-08-09 (9 years ago)
Launch vehicle
Unknown
Launch site
Taiyaun Space Center, China (TSC)
Object type
Payload
Rocket body
Debris
Shape & HBR
Cyl, 1.4 m
Radar Cross Section
7.676 m², Large (>1 m²)

Expand to show TLE details & history
Last TLE update: 15 hours ago

TLE from 15 hours ago
0 CZ-4C R/B
1 41728U 16049B   25341.16692563  .00001405  00000-0  21847-3 0  9990
2 41728  97.9875  46.1492 0099558  83.5030 277.7500 14.71306978499893
Epoch: 2025-12-07T04:00Z
TLE epoch observation values (Epoch: 2025-12-07T04:00:22.374Z)
Latitude
-0.00007°
Longitude
-90.12822°
Altitude
651.146 km
Speed
7.537 km/s
True Right ascension
03h 04m 35s
True Declination
0° 00' 00"
Sunlit
Object was in full shadow at epoch
Visualization orbit readout
Latitude
Unknown
Longitude
Unknown
Altitude
Unknown
Speed
Unknown
Apparent Right ascension
Unknown
Apparent Declination
Unknown
Sunlit
N/A
Visualization observer readout
Local Sidereal Time
17:25:29
Azimuth
Unknown
Elevation
Unknown
Doppler factor
Unknown
Orbital elements
Apogee altitude
723.965 km
Perigee altitude
583.945 km
Semi-major axis
7,032.092 km
Eccentricity
0.00996
Inclination
97.9875°
RAAN
46.1492°
Arg. of periapsis
83.503°
True anomaly
276.61774°
Mean anomaly
277.75°
Eccentric anomaly
277.18405°
Mean motion
3.68058 °/min
Orbital period
97.81 mins
BSTAR
0.00021847
Loading maneuver chart data...
Computing Atmospheric mass density...
Loading historical data...
Loading historical data...
Loading historical data...
Loading historical data...
Loading historical data...
Loading historical data...
Loading historical data...
Other satellites on launch #49 in the year 2016 (2016-08-09 UTC)

Documentation

Showing up to 5 results
|